Guillaume Martin

Guillaume Martin

Statistiques 2026

  • Courses courues : 238
  • Nb de victoires : 17
  • Nb de places : 76
  • Écart gagnant : 37
  • Réussite à la gagne : 7%
  • Réussite à la place : 32%
Musique : 0a 0a 4m 3m 2m 2a Aa Da 2a 7a 6a 0a 2m 6a 9a Dm 0a 6m
DateRangCatégorieAlloc.Dist.HippodromeChevalRed. KmSpé.
22/09/24 0 Trot 16 500€ 2 750m Ecommoy Jericocko de Frad Attelé
22/09/24 1 Trot 16 500€ 2 750m Ecommoy Jacomo Danica Attelé
22/09/24 0 Trot 16 500€ 2 775m Ecommoy Junky de Chenu Attelé
22/09/24 0 Trot 24 000€ 2 775m Ecommoy Galia Sotho Attelé
22/09/24 4 Trot 16 000€ 2 750m Ecommoy Kiviana Monté
20/04/25 D Trot 21 000€ 2 750m Ecommoy Kedea de Ginai Attelé
20/04/25 3 Trot 18 500€ 2 750m Ecommoy Kalimba Louna Attelé
20/04/25 6 Trot 21 000€ 2 775m Ecommoy Hello Daxel Attelé
20/04/25 7 Trot 16 000€ 2 750m Ecommoy Maxou Digeo Monté
21/04/25 7 Trot 14 000€ 2 750m Ecommoy Maeva de Crescy Attelé
21/04/25 1 Trot 13 000€ 2 750m Ecommoy Le Bois Josselyn Attelé
21/04/25 8 Trot 18 500€ 2 750m Ecommoy Krac Au Vent Attelé
21/04/25 D Trot 18 500€ 2 750m Ecommoy Kalio de Braye Attelé
21/04/25 D Trot 16 000€ 2 775m Ecommoy L'Expert Attelé
21/04/25 D Trot 24 000€ 2 775m Ecommoy Hidalgo de Varenne Attelé
21/04/25 2 Trot 18 500€ 2 775m Ecommoy Jackson du Clos Monté
31/08/25 9 Trot 16 000€ 2 775m Ecommoy Lady de Grez Attelé
31/08/25 6 Trot 14 000€ 2 750m Ecommoy Madig Thourjan Attelé
31/08/25 6 Trot 14 000€ 2 750m Ecommoy Manon Orange Attelé
31/08/25 2 Trot 27 000€ 2 775m Ecommoy Kronos Julino Attelé
31/08/25 D Trot 16 000€ 2 750m Ecommoy Leon de la Courbe Monté
01/04/24 D Trot 14 000€ 2 750m Ecommoy Lovea de Cemaso Attelé
01/04/24 1 Trot 16 000€ 2 750m Ecommoy Kalisco de Gennes Attelé
01/04/24 3 Trot 24 000€ 2 750m Ecommoy Humour Festif Attelé
01/04/24 2 Trot 13 000€ 2 775m Ecommoy Kick Up Gede Attelé
01/04/24 4 Trot 13 000€ 2 750m Ecommoy Kingsty Attelé
01/04/24 1 Trot 14 000€ 2 750m Ecommoy Karaly Monté
22/04/23 3 Trot 68 000€ 2 875m Enghien Soisy Fleur du Polea 1'13"3 Monté lire

Très vite troisième, a bien tenu sa partie jusqu'à la fin.

22/04/23 0 Trot 68 000€ 2 150m Enghien Soisy Express de l'Iton Attelé lire

N'a joué aucun rôle utile.

04/05/23 D Trot 46 000€ 2 250m Enghien Soisy Ideal du Noyer Monté lire

Jamais en course, a été sanctionnée à la sortie du tournant final.

05/07/23 3 Trot 59 000€ 2 250m Enghien Soisy New Express 1'12"7 Monté lire

Longtemps dans la dernière partie du peloton, a conclu de belle manière.

05/07/23 3 Trot 46 000€ 2 875m Enghien Soisy Jexelle Lugui 1'15"3 Attelé
08/07/23 2 Trot 46 000€ 2 875m Enghien Soisy Jalea Jiel 1'14"3 Monté
19/07/23 D Trot 46 000€ 2 250m Enghien Soisy Kentucky de Padd Monté
19/07/23 5 Trot 46 000€ 2 150m Enghien Soisy Icare des Forges 1'15"9 Attelé lire

A rejoint les animateurs aux tribunes, plafonnant progressivement dans la ligne droite.

19/07/23 D Trot 40 000€ 2 875m Enghien Soisy Juppy Up Attelé
19/07/23 6 Trot 52 000€ 2 875m Enghien Soisy Fascinant 1'18"0 Monté
02/08/23 4 Trot 40 000€ 2 150m Enghien Soisy Jocie du Villard 1'14"4 Attelé
02/08/23 4 Trot 46 000€ 2 150m Enghien Soisy Nouba Mom 1'14"4 Attelé lire

Après avoir attendu, a gagné du terrain dans le dernier tournant, soutenant bien son effort jusqu'au bout.

02/08/23 D Trot 35 000€ 2 250m Enghien Soisy Kamille d'Authise 1'25"6 Monté
12/08/23 1 Trot 35 000€ 2 875m Enghien Soisy Kadence d'Enfer 1'16"8 Attelé
12/08/23 D Trot 18 000€ 2 150m Enghien Soisy Jalimede 1'16"5 Attelé
12/08/23 1 Trot 46 000€ 2 875m Enghien Soisy Juliana de Retz 1'14"0 Monté
13/08/23 5 Trot 40 000€ 2 250m Enghien Soisy Jimany 1'14"0 Monté
13/08/23 5 Trot 46 000€ 2 875m Enghien Soisy Killer de Cahot 1'16"3 Attelé
13/08/23 5 Trot 52 000€ 2 875m Enghien Soisy Kinoa du Livier 1'16"9 Attelé
13/08/23 6 Trot 35 000€ 2 875m Enghien Soisy Jambier 1'15"2 Attelé
13/08/23 8 Trot 35 000€ 2 150m Enghien Soisy Jerolina Flac 1'14"5 Attelé
30/09/23 4 Trot 41 000€ 2 875m Enghien Soisy Intuition Jiel 1'15"0 Monté
30/09/23 9 Trot 18 000€ 2 150m Enghien Soisy Ines Turgot 1'15"9 Attelé